| time (UTC) | temp F | wind direction | speed knots | gust knots | rain 1hr in | rain 24hr in | rain mn in | humidity % | barometer mb |
| 20260505001644 | 80 | 203 | 0.0 | 3.5 | 0.00 | 0.00 | 0.00 | 34 | 1009.0 |
| 20260505001415 | 80 | 293 | 0.0 | 3.5 | 0.00 | 0.00 | 0.00 | 34 | 1009.0 |
| 20260505000643 | 80 | 338 | 0.9 | 3.5 | 0.00 | 0.00 | 0.00 | 34 | 1009.0 |
| 20260505000415 | 80 | 180 | 0.9 | 3.5 | 0.00 | 0.00 | 0.00 | 34 | 1009.3 |
| 20260504235645 | 80 | 90 | 0.9 | 2.6 | 0.00 | 0.00 | 0.00 | 34 | 1009.3 |
| 20260504235145 | 80 | 270 | 0.0 | 2.6 | 0.00 | 0.00 | 0.00 | 35 | 1009.3 |
| 20260504234644 | 80 | 68 | 0.0 | 3.5 | 0.00 | 0.00 | 0.00 | 35 | 1009.3 |
| 20260504234415 | 80 | 23 | 0.9 | 3.5 | 0.00 | 0.00 | 0.00 | 35 | 1009.7 |
| 20260504233644 | 80 | 270 | 0.9 | 3.5 | 0.00 | 0.00 | 0.00 | 34 | 1009.3 |
| 20260504233144 | 80 | 270 | 0.0 | 3.5 | 0.00 | 0.00 | 0.00 | 34 | 1009.3 |
| 20260504232915 | 80 | 270 | 0.0 | 4.3 | 0.00 | 0.00 | 0.00 | 34 | 1009.3 |
| 20260504232143 | 80 | 0 | 0.9 | 4.3 | 0.00 | 0.00 | 0.00 | 35 | 1009.3 |
| 20260504231643 | 81 | 338 | 0.9 | 4.3 | 0.00 | 0.00 | 0.00 | 35 | 1009.3 |
| 20260504231415 | 81 | 23 | 0.9 | 4.3 | 0.00 | 0.00 | 0.00 | 35 | 1009.3 |
| 20260504230645 | 80 | 68 | 0.9 | 4.3 | 0.00 | 0.00 | 0.00 | 35 | 1009.3 |
| 20260504230145 | 80 | 338 | 0.9 | 4.3 | 0.00 | 0.00 | 0.00 | 35 | 1009.0 |
| 20260504225644 | 80 | 270 | 0.9 | 4.3 | 0.00 | 0.00 | 0.00 | 35 | 1009.7 |
| 20260504225144 | 80 | 68 | 0.0 | 4.3 | 0.00 | 0.00 | 0.00 | 35 | 1009.7 |
| 20260504224643 | 80 | 293 | 0.9 | 5.2 | 0.00 | 0.00 | 0.00 | 35 | 1009.3 |
| 20260504224143 | 80 | 338 | 0.9 | 5.2 | 0.00 | 0.00 | 0.00 | 35 | 1009.3 |
| 20260504223643 | 80 | 45 | 0.9 | 5.2 | 0.00 | 0.00 | 0.00 | 35 | 1009.7 |
| 20260504223143 | 80 | 270 | 0.9 | 5.2 | 0.00 | 0.00 | 0.00 | 35 | 1009.7 |
| 20260504222644 | 80 | 225 | 0.9 | 7.0 | 0.00 | 0.00 | 0.00 | 35 | 1009.3 |
| 20260504222415 | 80 | 270 | 0.9 | 7.0 | 0.00 | 0.00 | 0.00 | 35 | 1009.7 |
| 20260504221644 | 80 | 90 | 0.9 | 6.1 | 0.00 | 0.00 | 0.00 | 35 | 1009.7 |
| 20260504221144 | 80 | 315 | 0.9 | 6.1 | 0.00 | 0.00 | 0.00 | 35 | 1009.7 |
| 20260504220644 | 79 | 45 | 0.9 | 5.2 | 0.00 | 0.00 | 0.00 | 35 | 1009.7 |
| 20260504220415 | 79 | 0 | 0.9 | 6.1 | 0.00 | 0.00 | 0.00 | 35 | 1009.7 |
| 20260504215643 | 79 | 180 | 0.9 | 6.1 | 0.00 | 0.00 | 0.00 | 35 | 1010.0 |
| 20260504215143 | 79 | 270 | 0.9 | 3.5 | 0.00 | 0.00 | 0.00 | 35 | 1009.7 |
| 20260504214643 | 79 | 68 | 0.0 | 3.5 | 0.00 | 0.00 | 0.00 | 35 | 1009.7 |
| 20260504214143 | 79 | 23 | 0.9 | 3.5 | 0.00 | 0.00 | 0.00 | 35 | 1010.0 |
| 20260504213644 | 79 | 0 | 0.0 | 4.3 | 0.00 | 0.00 | 0.00 | 35 | 1010.5 |
| 20260504213145 | 79 | 23 | 0.9 | 6.1 | 0.00 | 0.00 | 0.00 | 35 | 1010.5 |
| 20260504212915 | 79 | 0 | 0.9 | 6.1 | 0.00 | 0.00 | 0.00 | 35 | 1010.5 |
| 20260504212143 | 79 | 248 | 1.7 | 6.1 | 0.00 | 0.00 | 0.00 | 35 | 1010.5 |
| 20260504211643 | 79 | 293 | 1.7 | 6.1 | 0.00 | 0.00 | 0.00 | 35 | 1010.8 |
| 20260504211148 | 79 | 180 | 0.9 | 7.8 | 0.00 | 0.00 | 0.00 | 32 | 1010.5 |
| 20260504211144 | 79 | 158 | 1.7 | 6.1 | 0.00 | 0.00 | 0.00 | 34 | 1010.8 |
| 20260504210142 | 79 | 180 | 1.7 | 7.8 | 0.00 | 0.00 | 0.00 | 32 | 1010.8 |
| 20260504205642 | 79 | 203 | 1.7 | 7.0 | 0.00 | 0.00 | 0.00 | 31 | 1010.5 |
| 20260504205143 | 80 | 270 | 1.7 | 7.0 | 0.00 | 0.00 | 0.00 | 31 | 1010.8 |
| 20260504204643 | 80 | 180 | 1.7 | 7.0 | 0.00 | 0.00 | 0.00 | 31 | 1010.8 |
| 20260504204143 | 80 | 270 | 1.7 | 7.0 | 0.00 | 0.00 | 0.00 | 32 | 1010.8 |
| 20260504203914 | 79 | 180 | 1.7 | 7.0 | 0.00 | 0.00 | 0.00 | 31 | 1010.8 |
| 20260504203143 | 79 | 270 | 0.9 | 7.8 | 0.00 | 0.00 | 0.00 | 32 | 1010.8 |
| 20260504202645 | 79 | 203 | 1.7 | 6.1 | 0.00 | 0.00 | 0.00 | 34 | 1010.5 |
| 20260504202641 | 79 | 203 | 1.7 | 7.8 | 0.00 | 0.00 | 0.00 | 32 | 1010.5 |
| 20260504201912 | 79 | 158 | 1.7 | 6.1 | 0.00 | 0.00 | 0.00 | 34 | 1010.8 |
| 20260504201142 | 79 | 158 | 1.7 | 6.1 | 0.00 | 0.00 | 0.00 | 34 | 1010.8 |
| 20260504200642 | 79 | 203 | 1.7 | 8.7 | 0.00 | 0.00 | 0.00 | 34 | 1010.8 |
| 20260504200142 | 79 | 225 | 1.7 | 8.7 | 0.00 | 0.00 | 0.00 | 34 | 1010.8 |
| 20260504195914 | 79 | 180 | 1.7 | 6.1 | 0.00 | 0.00 | 0.00 | 32 | 1010.8 |
| 20260504195859 | 79 | 203 | 0.9 | 6.1 | 0.00 | 0.00 | 0.00 | 34 | 1010.8 |
| 20260504194640 | 79 | 158 | 1.7 | 7.0 | 0.00 | 0.00 | 0.00 | 32 | 1010.8 |
| 20260504194141 | 79 | 203 | 1.7 | 7.8 | 0.00 | 0.00 | 0.00 | 32 | 1010.8 |
| 20260504193641 | 79 | 180 | 0.9 | 7.8 | 0.00 | 0.00 | 0.00 | 32 | 1010.8 |
| 20260504193140 | 79 | 158 | 0.9 | 6.1 | 0.00 | 0.00 | 0.00 | 32 | 1011.1 |
| 20260504192642 | 79 | 203 | 1.7 | 7.8 | 0.00 | 0.00 | 0.00 | 31 | 1010.8 |
| 20260504192141 | 79 | 180 | 0.9 | 7.0 | 0.00 | 0.00 | 0.00 | 34 | 1011.1 |
| 20260504191642 | 79 | 203 | 1.7 | 7.0 | 0.00 | 0.00 | 0.00 | 32 | 1011.1 |
| 20260504191142 | 79 | 203 | 1.7 | 6.1 | 0.00 | 0.00 | 0.00 | 32 | 1010.8 |
| 20260504190641 | 78 | 270 | 0.9 | 7.0 | 0.00 | 0.00 | 0.00 | 34 | 1010.5 |
| 20260504190141 | 78 | 248 | 0.9 | 7.0 | 0.00 | 0.00 | 0.00 | 32 | 1010.8 |
| 20260504185640 | 78 | 270 | 1.7 | 6.1 | 0.00 | 0.00 | 0.00 | 34 | 1010.8 |
| 20260504185140 | 78 | 203 | 0.9 | 6.1 | 0.00 | 0.00 | 0.00 | 32 | 1010.8 |
| 20260504184640 | 78 | 203 | 0.9 | 6.1 | 0.00 | 0.00 | 0.00 | 32 | 1010.5 |
| 20260504184142 | 78 | 180 | 1.7 | 7.0 | 0.00 | 0.00 | 0.00 | 32 | 1010.8 |
| 20260504183641 | 78 | 90 | 0.9 | 7.0 | 0.00 | 0.00 | 0.00 | 34 | 1010.8 |
| 20260504183413 | 77 | 180 | 1.7 | 6.1 | 0.00 | 0.00 | 0.00 | 32 | 1011.1 |
| 20260504182641 | 77 | 225 | 0.9 | 6.1 | 0.00 | 0.00 | 0.00 | 32 | 1011.1 |
| 20260504182141 | 77 | 248 | 1.7 | 6.1 | 0.00 | 0.00 | 0.00 | 32 | 1011.1 |
| 20260504181640 | 77 | 135 | 1.7 | 7.8 | 0.00 | 0.00 | 0.00 | 32 | 1011.5 |
| 20260504181140 | 77 | 225 | 1.7 | 7.8 | 0.00 | 0.00 | 0.00 | 32 | 1011.5 |
| 20260504180640 | 77 | 270 | 1.7 | 6.1 | 0.00 | 0.00 | 0.00 | 32 | 1011.1 |
| 20260504180139 | 77 | 270 | 0.9 | 5.2 | 0.00 | 0.00 | 0.00 | 32 | 1011.1 |
| 20260504175641 | 77 | 270 | 1.7 | 5.2 | 0.00 | 0.00 | 0.00 | 32 | 1010.5 |
| 20260504175412 | 77 | 180 | 0.9 | 5.2 | 0.00 | 0.00 | 0.00 | 30 | 1010.8 |
| 20260504174641 | 77 | 203 | 0.9 | 6.1 | 0.00 | 0.00 | 0.00 | 31 | 1010.8 |
| 20260504174140 | 77 | 203 | 1.7 | 6.1 | 0.00 | 0.00 | 0.00 | 30 | 1010.8 |
| 20260504173641 | 77 | 203 | 1.7 | 6.1 | 0.00 | 0.00 | 0.00 | 31 | 1010.8 |
| 20260504173141 | 77 | 180 | 0.9 | 7.0 | 0.00 | 0.00 | 0.00 | 32 | 1010.8 |
| 20260504172639 | 77 | 180 | 1.7 | 7.0 | 0.00 | 0.00 | 0.00 | 32 | 1010.8 |
| 20260504172410 | 77 | 158 | 1.7 | 7.8 | 0.00 | 0.00 | 0.00 | 32 | 1010.8 |
| 20260504171640 | 77 | 158 | 1.7 | 7.8 | 0.00 | 0.00 | 0.00 | 31 | 1011.1 |
| 20260504171141 | 77 | 158 | 1.7 | 7.8 | 0.00 | 0.00 | 0.00 | 32 | 1011.1 |
| 20260504170641 | 77 | 203 | 1.7 | 7.8 | 0.00 | 0.00 | 0.00 | 32 | 1011.1 |
| 20260504170141 | 77 | 180 | 1.7 | 7.0 | 0.00 | 0.00 | 0.00 | 31 | 1011.5 |
| 20260504160119 | 76 | 203 | 2.6 | 11.3 | 0.00 | 0.00 | 0.00 | 34 | 1010.8 |
| 20260504151119 | 74 | 158 | 1.7 | 7.0 | 0.00 | 0.00 | 0.00 | 39 | 1010.8 |
| 20260504150618 | 74 | 158 | 1.7 | 7.8 | 0.00 | 0.00 | 0.00 | 40 | 1010.5 |
| 20260504150118 | 74 | 293 | 1.7 | 7.8 | 0.00 | 0.00 | 0.00 | 40 | 1010.5 |
| 20260504141119 | 74 | 180 | 1.7 | 5.2 | 0.00 | 0.00 | 0.00 | 41 | 1010.0 |
| 20260504140619 | 74 | 113 | 0.9 | 3.5 | 0.00 | 0.00 | 0.00 | 41 | 1010.0 |
| 20260504140119 | 74 | 203 | 0.0 | 3.5 | 0.00 | 0.00 | 0.00 | 43 | 1010.5 |
| 20260504130618 | 74 | 225 | 0.9 | 5.2 | 0.00 | 0.00 | 0.00 | 43 | 1010.0 |
| 20260504130117 | 74 | 203 | 0.9 | 5.2 | 0.00 | 0.00 | 0.00 | 40 | 1009.3 |
| 20260504120117 | 74 | 270 | 0.0 | 0.0 | 0.00 | 0.00 | 0.00 | 39 | 1009.0 |
| 20260504110617 | 75 | 225 | 0.0 | 2.6 | 0.00 | 0.00 | 0.00 | 37 | 1009.0 |
| 20260504110348 | 75 | 158 | 0.0 | 0.0 | 0.00 | 0.00 | 0.00 | 37 | 1009.0 |
| 20260504100118 | 76 | 180 | 0.9 | 4.3 | 0.00 | 0.00 | 0.00 | 35 | 1009.0 |
| 20260504081615 | 77 | 180 | 0.9 | 7.0 | 0.00 | 0.00 | 0.00 | 35 | 1008.7 |
| 20260504081116 | 77 | 158 | 0.9 | 7.0 | 0.00 | 0.00 | 0.00 | 35 | 1009.0 |
| 20260504080615 | 78 | 225 | 0.9 | 5.2 | 0.00 | 0.00 | 0.00 | 35 | 1009.0 |
| 20260504080117 | 78 | 158 | 0.9 | 5.2 | 0.00 | 0.00 | 0.00 | 35 | 1008.7 |
| 20260504050555 | 81 | 180 | 1.7 | 8.7 | 0.00 | 0.00 | 0.00 | 25 | 1008.7 |
| 20260504045538 | 82 | 203 | 1.7 | 9.6 | 0.00 | 0.00 | 0.00 | 25 | 1008.7 |
| 20260504045311 | 82 | 225 | 1.7 | 9.6 | 0.00 | 0.00 | 0.00 | 24 | 1008.3 |
| 20260504044538 | 82 | 203 | 1.7 | 8.7 | 0.00 | 0.00 | 0.00 | 24 | 1008.3 |
| 20260504044038 | 82 | 203 | 1.7 | 12.2 | 0.00 | 0.00 | 0.00 | 22 | 1008.3 |
| 20260504043808 | 82 | 203 | 2.6 | 12.2 | 0.00 | 0.00 | 0.00 | 22 | 1008.3 |
| 20260504043306 | 83 | 180 | 1.7 | 9.6 | 0.00 | 0.00 | 0.00 | 22 | 1008.3 |
| 20260504042536 | 83 | 203 | 2.6 | 10.4 | 0.00 | 0.00 | 0.00 | 22 | 1008.0 |
| 20260504042306 | 83 | 203 | 2.6 | 10.4 | 0.00 | 0.00 | 0.00 | 22 | 1008.0 |
| 20260504041538 | 83 | 180 | 2.6 | 9.6 | 0.00 | 0.00 | 0.00 | 22 | 1008.0 |
| 20260504041018 | 83 | 158 | 2.6 | 9.6 | 0.00 | 0.00 | 0.00 | 22 | 1007.6 |
| 20260504040519 | 83 | 203 | 2.6 | 10.4 | 0.00 | 0.00 | 0.00 | 20 | 1007.6 |
| 20260504040018 | 84 | 180 | 2.6 | 10.4 | 0.00 | 0.00 | 0.00 | 22 | 1007.6 |
| 20260504035518 | 84 | 158 | 2.6 | 12.2 | 0.00 | 0.00 | 0.00 | 22 | 1007.3 |
| 20260504035017 | 84 | 180 | 2.6 | 12.2 | 0.00 | 0.00 | 0.00 | 22 | 1007.3 |
| 20260504034516 | 84 | 248 | 2.6 | 11.3 | 0.00 | 0.00 | 0.00 | 20 | 1007.3 |
| 20260504034016 | 84 | 180 | 1.7 | 9.6 | 0.00 | 0.00 | 0.00 | 20 | 1006.9 |
| 20260504033517 | 84 | 248 | 2.6 | 11.3 | 0.00 | 0.00 | 0.00 | 20 | 1006.9 |
| 20260504033018 | 85 | 248 | 2.6 | 13.9 | 0.00 | 0.00 | 0.00 | 20 | 1006.5 |
| 20260504032518 | 85 | 248 | 2.6 | 13.9 | 0.00 | 0.00 | 0.00 | 20 | 1006.5 |
| 20260504032017 | 85 | 203 | 2.6 | 13.9 | 0.00 | 0.00 | 0.00 | 20 | 1006.5 |
| 20260504031517 | 85 | 225 | 3.5 | 12.2 | 0.00 | 0.00 | 0.00 | 20 | 1006.2 |
| 20260504031016 | 85 | 203 | 2.6 | 12.2 | 0.00 | 0.00 | 0.00 | 19 | 1006.2 |
| 20260504030515 | 86 | 180 | 2.6 | 12.2 | 0.00 | 0.00 | 0.00 | 19 | 1006.2 |
| 20260504030015 | 86 | 158 | 1.7 | 11.3 | 0.00 | 0.00 | 0.00 | 19 | 1006.2 |
| 20260504025515 | 86 | 203 | 2.6 | 11.3 | 0.00 | 0.00 | 0.00 | 17 | 1006.2 |
| 20260504025016 | 86 | 158 | 2.6 | 11.3 | 0.00 | 0.00 | 0.00 | 17 | 1006.2 |
| 20260504024516 | 87 | 180 | 2.6 | 11.3 | 0.00 | 0.00 | 0.00 | 17 | 1005.9 |
| 20260504024247 | 87 | 180 | 2.6 | 11.3 | 0.00 | 0.00 | 0.00 | 17 | 1005.9 |
| 20260504023747 | 87 | 203 | 1.7 | 13.0 | 0.00 | 0.00 | 0.00 | 17 | 1005.5 |
| 20260504023016 | 87 | 158 | 2.6 | 13.0 | 0.00 | 0.00 | 0.00 | 17 | 1005.5 |
| 20260504022514 | 88 | 203 | 1.7 | 14.8 | 0.00 | 0.00 | 0.00 | 17 | 1005.5 |
| 20260504022015 | 88 | 225 | 3.5 | 14.8 | 0.00 | 0.00 | 0.00 | 17 | 1005.2 |
| 20260504021513 | 88 | 203 | 2.6 | 11.3 | 0.00 | 0.00 | 0.00 | 17 | 1005.2 |
| 20260504021014 | 89 | 158 | 3.5 | 13.0 | 0.00 | 0.00 | 0.00 | 17 | 1005.2 |
| 20260504020514 | 89 | 158 | 2.6 | 14.8 | 0.00 | 0.00 | 0.00 | 17 | 1005.2 |
| 20260504020019 | 90 | 180 | 3.5 | 14.8 | 0.00 | 0.00 | 0.00 | 15 | 1004.8 |
| 20260504020015 | 89 | 180 | 3.5 | 14.8 | 0.00 | 0.00 | 0.00 | 15 | 1004.8 |
| 20260504015014 | 90 | 203 | 2.6 | 12.2 | 0.00 | 0.00 | 0.00 | 15 | 1004.8 |
| 20260504014515 | 91 | 225 | 2.6 | 10.4 | 0.00 | 0.00 | 0.00 | 15 | 1004.8 |
| 20260504014013 | 91 | 158 | 1.7 | 13.0 | 0.00 | 0.00 | 0.00 | 15 | 1004.5 |
| 20260504013512 | 91 | 180 | 2.6 | 13.0 | 0.00 | 0.00 | 0.00 | 15 | 1004.5 |
| 20260504013013 | 91 | 203 | 1.7 | 7.0 | 0.00 | 0.00 | 0.00 | 15 | 1004.5 |
| 20260504012512 | 92 | 248 | 1.7 | 11.3 | 0.00 | 0.00 | 0.00 | 15 | 1004.5 |
| 20260504012013 | 92 | 203 | 2.6 | 11.3 | 0.00 | 0.00 | 0.00 | 13 | 1004.8 |
| 20260504011513 | 92 | 180 | 2.6 | 11.3 | 0.00 | 0.00 | 0.00 | 13 | 1004.5 |
| 20260504011013 | 93 | 225 | 2.6 | 10.4 | 0.00 | 0.00 | 0.00 | 15 | 1004.5 |
| 20260504010743 | 93 | 248 | 2.6 | 10.4 | 0.00 | 0.00 | 0.00 | 15 | 1004.5 |
| 20260504010012 | 93 | 180 | 2.6 | 11.3 | 0.00 | 0.00 | 0.00 | 13 | 1004.5 |
| 20260504005513 | 93 | 180 | 2.6 | 11.3 | 0.00 | 0.00 | 0.00 | 13 | 1004.5 |
| 20260504005011 | 94 | 158 | 1.7 | 10.4 | 0.00 | 0.00 | 0.00 | 15 | 1004.5 |
| 20260504004511 | 94 | 180 | 2.6 | 11.3 | 0.00 | 0.00 | 0.00 | 13 | 1004.5 |
| 20260504004011 | 94 | 203 | 3.5 | 11.3 | 0.00 | 0.00 | 0.00 | 13 | 1004.5 |
| 20260504003512 | 94 | 135 | 2.6 | 13.0 | 0.00 | 0.00 | 0.00 | 13 | 1004.5 |
| 20260504003013 | 94 | 158 | 3.5 | 13.0 | 0.00 | 0.00 | 0.00 | 13 | 1004.5 |
| 20260504002512 | 95 | 203 | 2.6 | 12.2 | 0.00 | 0.00 | 0.00 | 13 | 1004.5 |